| time (UTC) | temp F | wind direction | speed knots | gust knots | rain 1hr in | rain 24hr in | rain mn in | humidity % | barometer mb |
| 20260508043659 | 46 | 119 | 0.0 | 0.0 | 0.00 | 0.11 | 0.00 | 85 | 1013.1 |
| 20260508043155 | 47 | 119 | 0.0 | 1.7 | 0.00 | 0.11 | 0.00 | 86 | 1013.1 |
| 20260508042652 | 47 | 119 | 0.0 | 1.7 | 0.00 | 0.11 | 0.00 | 85 | 1013.0 |
| 20260508042145 | 47 | 119 | 0.0 | 0.9 | 0.00 | 0.11 | 0.00 | 83 | 1012.9 |
| 20260508041646 | 47 | 119 | 0.9 | 4.3 | 0.00 | 0.11 | 0.00 | 83 | 1012.9 |
| 20260508041636 | 48 | 119 | 0.9 | 4.3 | 0.00 | 0.11 | 0.00 | 84 | 1012.9 |
| 20260508040631 | 48 | 123 | 0.0 | 1.7 | 0.00 | 0.11 | 0.00 | 81 | 1012.8 |
| 20260508040129 | 49 | 124 | 0.0 | 0.9 | 0.00 | 0.11 | 0.00 | 83 | 1013.0 |
| 20260508035614 | 49 | 124 | 0.0 | 1.7 | 0.00 | 0.11 | 0.11 | 79 | 1012.9 |
| 20260508035328 | 50 | 124 | 0.0 | 1.7 | 0.00 | 0.11 | 0.11 | 82 | 1012.8 |
| 20260508034557 | 49 | 123 | 0.9 | 4.3 | 0.00 | 0.11 | 0.11 | 82 | 1012.7 |
| 20260508034053 | 48 | 137 | 0.9 | 4.3 | 0.00 | 0.11 | 0.11 | 82 | 1012.7 |
| 20260508033548 | 46 | 123 | 0.0 | 1.7 | 0.00 | 0.11 | 0.11 | 88 | 1012.5 |
| 20260508033050 | 46 | 124 | 0.0 | 0.0 | 0.00 | 0.11 | 0.11 | 88 | 1012.4 |
| 20260508032550 | 46 | 124 | 0.0 | 0.0 | 0.00 | 0.11 | 0.11 | 88 | 1012.4 |
| 20260508032050 | 46 | 124 | 0.0 | 0.0 | 0.00 | 0.12 | 0.11 | 90 | 1012.5 |
| 20260508031538 | 46 | 124 | 0.0 | 0.0 | 0.00 | 0.12 | 0.11 | 89 | 1012.4 |
| 20260508031245 | 46 | 124 | 0.0 | 0.0 | 0.00 | 0.12 | 0.11 | 90 | 1012.3 |
| 20260508030520 | 47 | 125 | 0.0 | 0.0 | 0.00 | 0.12 | 0.11 | 89 | 1012.3 |
| 20260508030014 | 47 | 125 | 0.0 | 0.0 | 0.00 | 0.12 | 0.11 | 90 | 1012.2 |
| 20260508025504 | 47 | 125 | 0.0 | 0.0 | 0.00 | 0.13 | 0.11 | 90 | 1012.3 |
| 20260508025223 | 47 | 125 | 0.0 | 0.0 | 0.00 | 0.13 | 0.11 | 90 | 1012.3 |
| 20260508024502 | 48 | 125 | 0.0 | 0.0 | 0.00 | 0.14 | 0.11 | 89 | 1012.3 |
| 20260508024206 | 48 | 125 | 0.0 | 4.3 | 0.00 | 0.14 | 0.11 | 88 | 1012.3 |
| 20260508023444 | 48 | 125 | 0.0 | 4.3 | 0.00 | 0.14 | 0.11 | 86 | 1012.2 |
| 20260508023202 | 48 | 139 | 0.0 | 1.7 | 0.00 | 0.14 | 0.11 | 86 | 1012.1 |
| 20260508022709 | 49 | 139 | 0.0 | 0.0 | 0.00 | 0.14 | 0.11 | 86 | 1011.9 |
| 20260508021936 | 49 | 139 | 0.0 | 1.7 | 0.00 | 0.14 | 0.11 | 85 | 1011.9 |
| 20260508021443 | 49 | 139 | 0.0 | 1.7 | 0.00 | 0.14 | 0.11 | 85 | 1011.7 |
| 20260508021345 | 49 | 143 | 0.0 | 0.9 | 0.00 | 0.14 | 0.11 | 87 | 1011.7 |
| 20260508020357 | 49 | 143 | 0.0 | 0.9 | 0.00 | 0.14 | 0.11 | 86 | 1011.6 |
| 20260508015843 | 48 | 143 | 0.0 | 0.9 | 0.00 | 0.14 | 0.11 | 86 | 1011.5 |
| 20260508015329 | 48 | 143 | 0.0 | 1.7 | 0.00 | 0.14 | 0.11 | 90 | 1011.4 |
| 20260508014825 | 48 | 143 | 0.0 | 4.3 | 0.00 | 0.14 | 0.11 | 90 | 1011.3 |
| 20260508014308 | 48 | 144 | 0.0 | 4.3 | 0.00 | 0.14 | 0.11 | 91 | 1011.4 |
| 20260508013757 | 48 | 157 | 0.0 | 0.0 | 0.00 | 0.14 | 0.11 | 91 | 1011.2 |
| 20260508013233 | 48 | 157 | 0.0 | 0.0 | 0.00 | 0.14 | 0.11 | 91 | 1011.2 |
| 20260508012729 | 48 | 157 | 0.0 | 0.9 | 0.00 | 0.14 | 0.11 | 91 | 1011.1 |
| 20260508012218 | 49 | 157 | 0.0 | 1.7 | 0.00 | 0.14 | 0.11 | 92 | 1011.0 |
| 20260508011713 | 49 | 157 | 0.0 | 1.7 | 0.00 | 0.14 | 0.11 | 92 | 1010.9 |
| 20260508011211 | 49 | 155 | 0.0 | 0.0 | 0.00 | 0.14 | 0.11 | 91 | 1010.8 |
| 20260508010706 | 50 | 155 | 0.0 | 0.9 | 0.00 | 0.14 | 0.11 | 91 | 1010.8 |
| 20260508010148 | 50 | 155 | 0.0 | 0.9 | 0.00 | 0.14 | 0.11 | 92 | 1010.7 |
| 20260508005649 | 50 | 154 | 0.0 | 0.9 | 0.00 | 0.14 | 0.11 | 91 | 1010.8 |
| 20260508005152 | 51 | 154 | 0.0 | 0.9 | 0.00 | 0.14 | 0.11 | 91 | 1010.8 |
| 20260508004646 | 52 | 154 | 0.0 | 0.9 | 0.00 | 0.14 | 0.11 | 91 | 1010.8 |
| 20260508004138 | 52 | 154 | 0.0 | 0.0 | 0.00 | 0.14 | 0.11 | 90 | 1010.8 |
| 20260508003640 | 52 | 154 | 0.0 | 1.7 | 0.00 | 0.14 | 0.11 | 90 | 1010.7 |
| 20260508003124 | 53 | 154 | 0.0 | 1.7 | 0.00 | 0.14 | 0.11 | 90 | 1010.8 |
| 20260508002617 | 53 | 155 | 0.0 | 0.0 | 0.00 | 0.14 | 0.11 | 90 | 1010.7 |
| 20260508002604 | 54 | 155 | 0.0 | 0.0 | 0.00 | 0.14 | 0.11 | 90 | 1010.7 |
| 20260508001617 | 54 | 155 | 0.0 | 0.0 | 0.00 | 0.14 | 0.11 | 90 | 1010.8 |
| 20260508001059 | 54 | 155 | 0.0 | 0.0 | 0.00 | 0.14 | 0.11 | 90 | 1010.7 |
| 20260508000816 | 55 | 155 | 0.0 | 0.0 | 0.00 | 0.14 | 0.11 | 90 | 1010.8 |
| 20260508000512 | 55 | 155 | 0.0 | 0.0 | 0.00 | 0.14 | 0.11 | 91 | 1010.7 |
| 20260507235530 | 55 | 155 | 0.0 | 0.0 | 0.00 | 0.14 | 0.11 | 92 | 1010.8 |
| 20260507235031 | 56 | 155 | 0.0 | 0.0 | 0.00 | 0.14 | 0.11 | 91 | 1010.6 |
| 20260507234532 | 56 | 155 | 0.0 | 0.0 | 0.00 | 0.14 | 0.11 | 91 | 1010.5 |
| 20260507234244 | 56 | 155 | 0.0 | 0.0 | 0.00 | 0.14 | 0.11 | 91 | 1010.3 |
| 20260507233525 | 57 | 155 | 0.0 | 0.0 | 0.00 | 0.14 | 0.11 | 91 | 1010.4 |
| 20260507233012 | 57 | 155 | 0.0 | 0.0 | 0.00 | 0.14 | 0.11 | 90 | 1010.3 |
| 20260507232512 | 57 | 155 | 0.0 | 0.0 | 0.00 | 0.14 | 0.11 | 88 | 1010.2 |
| 20260507232010 | 57 | 155 | 0.0 | 0.0 | 0.00 | 0.14 | 0.11 | 88 | 1010.1 |
| 20260507231450 | 57 | 155 | 0.0 | 0.0 | 0.00 | 0.14 | 0.11 | 87 | 1010.0 |
| 20260507231208 | 58 | 155 | 0.0 | 0.0 | 0.00 | 0.14 | 0.11 | 87 | 1010.0 |
| 20260507230448 | 58 | 156 | 0.0 | 0.0 | 0.00 | 0.14 | 0.11 | 86 | 1009.9 |
| 20260507225942 | 58 | 155 | 0.0 | 0.0 | 0.00 | 0.14 | 0.11 | 86 | 1009.9 |
| 20260507225431 | 58 | 155 | 0.0 | 0.0 | 0.00 | 0.14 | 0.11 | 86 | 1009.8 |
| 20260507224919 | 58 | 155 | 0.0 | 0.0 | 0.00 | 0.14 | 0.11 | 86 | 1009.9 |
| 20260507224642 | 59 | 155 | 0.0 | 0.0 | 0.00 | 0.14 | 0.11 | 86 | 1010.0 |
| 20260507223908 | 59 | 155 | 0.0 | 4.3 | 0.00 | 0.14 | 0.11 | 85 | 1010.0 |
| 20260507223405 | 59 | 155 | 0.0 | 4.3 | 0.00 | 0.14 | 0.11 | 86 | 1009.9 |
| 20260507222832 | 59 | 146 | 0.0 | 4.3 | 0.00 | 0.14 | 0.11 | 83 | 1009.9 |
| 20260507222334 | 59 | 144 | 0.0 | 4.3 | 0.00 | 0.14 | 0.11 | 83 | 1009.8 |
| 20260507221828 | 60 | 164 | 0.0 | 4.3 | 0.00 | 0.14 | 0.11 | 84 | 1009.9 |
| 20260507221326 | 59 | 158 | 0.0 | 0.0 | 0.00 | 0.14 | 0.11 | 86 | 1009.9 |
| 20260507221041 | 59 | 158 | 0.0 | 0.9 | 0.00 | 0.14 | 0.11 | 85 | 1009.6 |
| 20260507220303 | 59 | 158 | 0.0 | 1.7 | 0.00 | 0.14 | 0.11 | 86 | 1009.7 |
| 20260507215804 | 59 | 157 | 0.0 | 1.7 | 0.00 | 0.14 | 0.11 | 86 | 1009.6 |
| 20260507215250 | 59 | 157 | 0.0 | 0.9 | 0.00 | 0.14 | 0.11 | 84 | 1009.5 |
| 20260507214743 | 59 | 157 | 0.0 | 0.9 | 0.00 | 0.14 | 0.11 | 84 | 1009.5 |
| 20260507214237 | 59 | 157 | 0.0 | 0.0 | 0.00 | 0.14 | 0.11 | 82 | 1009.5 |
| 20260507213733 | 59 | 157 | 0.0 | 0.9 | 0.00 | 0.14 | 0.11 | 83 | 1009.7 |
| 20260507213219 | 59 | 157 | 0.0 | 1.7 | 0.00 | 0.14 | 0.11 | 82 | 1009.5 |
| 20260507212703 | 59 | 157 | 0.0 | 1.7 | 0.00 | 0.14 | 0.11 | 83 | 1009.5 |
| 20260507212206 | 59 | 157 | 0.0 | 0.0 | 0.00 | 0.14 | 0.11 | 83 | 1009.6 |
| 20260507211648 | 59 | 157 | 0.0 | 0.0 | 0.00 | 0.14 | 0.11 | 83 | 1009.6 |
| 20260507211145 | 59 | 157 | 0.0 | 0.0 | 0.00 | 0.14 | 0.11 | 85 | 1009.5 |
| 20260507210646 | 59 | 157 | 0.0 | 0.0 | 0.00 | 0.14 | 0.11 | 84 | 1009.5 |
| 20260507210142 | 58 | 157 | 0.0 | 0.9 | 0.00 | 0.14 | 0.11 | 83 | 1009.5 |
| 20260507205628 | 59 | 157 | 0.0 | 1.7 | 0.00 | 0.14 | 0.11 | 85 | 1009.5 |
| 20260507205111 | 58 | 157 | 0.0 | 4.3 | 0.00 | 0.14 | 0.11 | 84 | 1009.2 |
| 20260507204559 | 58 | 154 | 0.0 | 4.3 | 0.00 | 0.14 | 0.11 | 82 | 1009.2 |
| 20260507204057 | 58 | 102 | 0.0 | 1.7 | 0.00 | 0.14 | 0.11 | 83 | 1009.2 |
| 20260507203551 | 58 | 102 | 0.9 | 5.2 | 0.00 | 0.14 | 0.11 | 83 | 1009.3 |
| 20260507203045 | 58 | 100 | 0.9 | 5.2 | 0.00 | 0.14 | 0.11 | 82 | 1009.3 |
| 20260507202539 | 58 | 86 | 0.0 | 1.7 | 0.00 | 0.14 | 0.11 | 83 | 1009.5 |
| 20260507202030 | 58 | 86 | 0.0 | 0.0 | 0.00 | 0.14 | 0.11 | 85 | 1009.5 |
| 20260507201527 | 58 | 86 | 0.0 | 0.0 | 0.00 | 0.14 | 0.11 | 87 | 1009.5 |
| 20260507201023 | 57 | 86 | 0.0 | 0.0 | 0.00 | 0.14 | 0.11 | 84 | 1009.6 |
| 20260507200518 | 57 | 86 | 0.0 | 0.0 | 0.00 | 0.14 | 0.11 | 87 | 1009.6 |
| 20260507200017 | 57 | 86 | 0.0 | 0.0 | 0.00 | 0.14 | 0.11 | 89 | 1009.9 |
| 20260507195518 | 57 | 86 | 0.0 | 0.0 | 0.01 | 0.14 | 0.11 | 88 | 1010.0 |
| 20260507195019 | 56 | 86 | 0.0 | 0.0 | 0.01 | 0.14 | 0.11 | 89 | 1010.0 |
| 20260507194503 | 56 | 86 | 0.0 | 0.0 | 0.02 | 0.14 | 0.11 | 89 | 1010.0 |
| 20260507193951 | 56 | 86 | 0.0 | 0.0 | 0.02 | 0.14 | 0.11 | 92 | 1010.0 |
| 20260507193443 | 56 | 86 | 0.0 | 0.0 | 0.02 | 0.14 | 0.11 | 92 | 1010.0 |
| 20260507192939 | 56 | 86 | 0.0 | 0.9 | 0.03 | 0.14 | 0.11 | 92 | 1010.2 |
| 20260507192913 | 55 | 86 | 0.0 | 1.7 | 0.04 | 0.14 | 0.11 | 92 | 1010.1 |
| 20260507192145 | 55 | 86 | 0.0 | 1.7 | 0.04 | 0.14 | 0.11 | 94 | 1010.2 |
| 20260507191418 | 55 | 86 | 0.0 | 0.9 | 0.04 | 0.14 | 0.11 | 94 | 1010.2 |
| 20260507190909 | 55 | 86 | 0.0 | 0.9 | 0.04 | 0.14 | 0.11 | 93 | 1010.1 |
| 20260507190404 | 55 | 86 | 0.0 | 0.9 | 0.04 | 0.14 | 0.11 | 94 | 1010.3 |
| 20260507185857 | 55 | 86 | 0.0 | 0.9 | 0.03 | 0.13 | 0.10 | 93 | 1010.4 |
| 20260507185353 | 55 | 69 | 0.0 | 0.0 | 0.04 | 0.13 | 0.10 | 93 | 1010.4 |
| 20260507184848 | 55 | 69 | 0.0 | 0.0 | 0.04 | 0.12 | 0.09 | 93 | 1010.6 |
| 20260507184349 | 55 | 69 | 0.0 | 0.0 | 0.05 | 0.12 | 0.09 | 93 | 1010.6 |
| 20260507183843 | 55 | 69 | 0.0 | 0.0 | 0.05 | 0.12 | 0.09 | 93 | 1010.8 |
| 20260507183339 | 55 | 69 | 0.0 | 1.7 | 0.05 | 0.12 | 0.09 | 93 | 1010.6 |
| 20260507183058 | 55 | 69 | 0.0 | 1.7 | 0.04 | 0.11 | 0.08 | 93 | 1010.6 |
| 20260507182315 | 55 | 69 | 0.0 | 0.9 | 0.03 | 0.10 | 0.07 | 93 | 1010.7 |
| 20260507181805 | 55 | 69 | 0.0 | 0.0 | 0.03 | 0.10 | 0.07 | 93 | 1010.5 |
| 20260507181305 | 55 | 68 | 0.0 | 0.0 | 0.04 | 0.10 | 0.07 | 93 | 1010.6 |
| 20260507180757 | 55 | 69 | 0.0 | 0.0 | 0.04 | 0.10 | 0.07 | 92 | 1010.5 |
| 20260507180520 | 55 | 69 | 0.0 | 0.0 | 0.04 | 0.10 | 0.07 | 93 | 1010.6 |
| 20260507175745 | 55 | 69 | 0.0 | 2.6 | 0.04 | 0.10 | 0.07 | 93 | 1010.5 |
| 20260507175245 | 55 | 69 | 0.0 | 2.6 | 0.03 | 0.09 | 0.06 | 91 | 1010.6 |
| 20260507175007 | 55 | 67 | 0.0 | 2.6 | 0.01 | 0.07 | 0.04 | 92 | 1010.4 |
| 20260507174245 | 55 | 66 | 0.0 | 0.0 | 0.01 | 0.07 | 0.04 | 92 | 1010.6 |
| 20260507173747 | 55 | 66 | 0.0 | 2.6 | 0.01 | 0.07 | 0.04 | 92 | 1010.5 |
| 20260507173219 | 54 | 66 | 0.9 | 2.6 | 0.01 | 0.07 | 0.04 | 93 | 1010.5 |
| 20260507172710 | 54 | 67 | 0.0 | 2.6 | 0.01 | 0.07 | 0.04 | 92 | 1010.3 |
| 20260507172203 | 54 | 65 | 0.0 | 0.0 | 0.02 | 0.07 | 0.04 | 92 | 1010.7 |
| 20260507171653 | 54 | 65 | 0.0 | 0.0 | 0.02 | 0.07 | 0.04 | 91 | 1010.6 |
| 20260507171418 | 54 | 65 | 0.0 | 0.9 | 0.01 | 0.06 | 0.03 | 91 | 1010.5 |
| 20260507170645 | 55 | 65 | 0.0 | 1.7 | 0.02 | 0.06 | 0.03 | 91 | 1010.6 |
| 20260507170414 | 55 | 65 | 0.0 | 1.7 | 0.02 | 0.06 | 0.03 | 91 | 1010.7 |
| 20260507165911 | 55 | 65 | 0.0 | 1.7 | 0.02 | 0.06 | 0.03 | 91 | 1010.6 |
| 20260507165123 | 55 | 65 | 0.9 | 5.2 | 0.02 | 0.06 | 0.03 | 91 | 1010.5 |
| 20260507164621 | 55 | 63 | 0.9 | 5.2 | 0.02 | 0.06 | 0.03 | 90 | 1010.6 |
| 20260507164121 | 55 | 23 | 0.9 | 2.6 | 0.02 | 0.06 | 0.03 | 91 | 1010.6 |
| 20260507163618 | 55 | 21 | 0.9 | 4.3 | 0.02 | 0.06 | 0.03 | 90 | 1010.7 |
| 20260507163119 | 55 | 19 | 0.0 | 4.3 | 0.02 | 0.06 | 0.03 | 90 | 1010.7 |
| 20260507162619 | 55 | 25 | 0.0 | 0.0 | 0.02 | 0.06 | 0.03 | 90 | 1010.7 |
| 20260507162113 | 55 | 25 | 0.0 | 0.0 | 0.01 | 0.05 | 0.02 | 89 | 1010.7 |
| 20260507161555 | 55 | 25 | 0.9 | 5.2 | 0.01 | 0.05 | 0.02 | 88 | 1010.7 |
| 20260507161313 | 56 | 25 | 0.9 | 5.2 | 0.01 | 0.05 | 0.02 | 87 | 1010.7 |
| 20260507160549 | 56 | 51 | 0.0 | 2.6 | 0.00 | 0.04 | 0.01 | 86 | 1011.0 |
| 20260507160047 | 56 | 134 | 0.0 | 0.0 | 0.00 | 0.04 | 0.01 | 87 | 1011.1 |
| 20260507155758 | 57 | 134 | 0.0 | 5.2 | 0.00 | 0.04 | 0.01 | 86 | 1011.2 |
| 20260507155036 | 57 | 134 | 0.9 | 5.2 | 0.00 | 0.04 | 0.01 | 86 | 1011.2 |
| 20260507154535 | 57 | 130 | 0.9 | 5.2 | 0.00 | 0.04 | 0.01 | 85 | 1011.1 |
| 20260507154033 | 57 | 263 | 0.9 | 4.3 | 0.00 | 0.04 | 0.01 | 86 | 1011.2 |
| 20260507153529 | 57 | 317 | 0.9 | 4.3 | 0.00 | 0.04 | 0.01 | 86 | 1011.1 |
| 20260507153029 | 57 | 318 | 0.9 | 4.3 | 0.00 | 0.04 | 0.01 | 85 | 1011.2 |
| 20260507152739 | 57 | 99 | 0.0 | 0.0 | 0.00 | 0.04 | 0.01 | 86 | 1011.0 |
| 20260507152007 | 57 | 99 | 0.0 | 0.0 | 0.00 | 0.04 | 0.01 | 86 | 1011.2 |
| 20260507151505 | 57 | 99 | 0.0 | 0.0 | 0.00 | 0.04 | 0.01 | 85 | 1011.1 |
| 20260507150945 | 57 | 99 | 0.0 | 2.6 | 0.00 | 0.04 | 0.01 | 85 | 1011.0 |
| 20260507150909 | 57 | 99 | 0.9 | 2.6 | 0.00 | 0.04 | 0.01 | 85 | 1011.2 |
| 20260507145916 | 57 | 86 | 0.9 | 2.6 | 0.00 | 0.04 | 0.01 | 84 | 1011.2 |
| 20260507145409 | 57 | 272 | 0.9 | 4.3 | 0.00 | 0.04 | 0.01 | 84 | 1011.2 |
| 20260507144858 | 57 | 16 | 0.9 | 4.3 | 0.00 | 0.04 | 0.01 | 83 | 1011.1 |
| 20260507144358 | 57 | 321 | 0.9 | 4.3 | 0.00 | 0.04 | 0.01 | 83 | 1011.0 |
| 20260507143852 | 57 | 252 | 0.9 | 4.3 | 0.00 | 0.04 | 0.01 | 82 | 1011.1 |
| 20260507143345 | 57 | 315 | 0.0 | 4.3 | 0.00 | 0.04 | 0.01 | 83 | 1011.1 |
| 20260507142845 | 57 | 316 | 0.9 | 5.2 | 0.00 | 0.05 | 0.01 | 82 | 1011.1 |
| 20260507142345 | 57 | 329 | 0.9 | 5.2 | 0.00 | 0.05 | 0.01 | 83 | 1011.0 |
| 20260507141846 | 57 | 11 | 0.0 | 2.6 | 0.00 | 0.05 | 0.01 | 83 | 1011.0 |
| 20260507141337 | 57 | 124 | 0.0 | 1.7 | 0.00 | 0.05 | 0.01 | 84 | 1011.0 |
| 20260507140820 | 57 | 125 | 0.0 | 1.7 | 0.00 | 0.05 | 0.01 | 83 | 1010.9 |
| 20260507140305 | 57 | 126 | 0.0 | 0.9 | 0.00 | 0.05 | 0.01 | 83 | 1011.2 |
| 20260507135800 | 57 | 125 | 0.0 | 1.7 | 0.00 | 0.05 | 0.01 | 84 | 1011.5 |
| 20260507135254 | 57 | 125 | 0.9 | 4.3 | 0.00 | 0.05 | 0.01 | 84 | 1011.6 |
| 20260507134749 | 58 | 122 | 0.9 | 6.1 | 0.00 | 0.05 | 0.01 | 82 | 1011.4 |
| 20260507134245 | 58 | 123 | 0.9 | 6.1 | 0.00 | 0.05 | 0.01 | 82 | 1011.3 |
| 20260507133745 | 58 | 135 | 0.9 | 5.2 | 0.00 | 0.05 | 0.01 | 81 | 1011.2 |
| 20260507133229 | 58 | 150 | 0.9 | 5.2 | 0.00 | 0.05 | 0.01 | 82 | 1011.4 |
| 20260507132725 | 58 | 155 | 0.9 | 6.1 | 0.00 | 0.05 | 0.01 | 81 | 1011.4 |
| 20260507132217 | 58 | 159 | 0.0 | 6.1 | 0.00 | 0.05 | 0.01 | 80 | 1011.5 |
| 20260507131707 | 59 | 181 | 0.0 | 4.3 | 0.00 | 0.05 | 0.01 | 80 | 1011.5 |
| 20260507131205 | 58 | 141 | 0.9 | 1.7 | 0.00 | 0.05 | 0.01 | 80 | 1011.3 |
| 20260507130659 | 58 | 140 | 1.7 | 6.1 | 0.00 | 0.05 | 0.01 | 81 | 1011.2 |
| 20260507130154 | 58 | 149 | 1.7 | 6.1 | 0.00 | 0.05 | 0.01 | 81 | 1011.0 |
| 20260507125649 | 58 | 113 | 1.7 | 8.7 | 0.00 | 0.05 | 0.01 | 80 | 1011.1 |
| 20260507125144 | 58 | 109 | 1.7 | 8.7 | 0.00 | 0.05 | 0.01 | 80 | 1011.0 |
| 20260507124644 | 58 | 56 | 1.7 | 7.0 | 0.00 | 0.05 | 0.01 | 80 | 1011.2 |
| 20260507124145 | 58 | 133 | 1.7 | 5.2 | 0.00 | 0.05 | 0.01 | 81 | 1011.3 |
| 20260507123645 | 58 | 335 | 0.9 | 5.2 | 0.00 | 0.05 | 0.01 | 80 | 1011.5 |
| 20260507123138 | 58 | 344 | 0.9 | 6.1 | 0.00 | 0.05 | 0.01 | 82 | 1011.4 |
| 20260507122852 | 58 | 344 | 0.9 | 6.1 | 0.00 | 0.05 | 0.01 | 81 | 1011.3 |
| 20260507122117 | 58 | 197 | 0.9 | 4.3 | 0.00 | 0.05 | 0.01 | 81 | 1011.4 |
| 20260507121612 | 58 | 197 | 0.9 | 4.3 | 0.00 | 0.05 | 0.01 | 80 | 1011.4 |
| 20260507121113 | 58 | 125 | 0.9 | 5.2 | 0.00 | 0.05 | 0.01 | 81 | 1011.6 |
| 20260507120602 | 58 | 115 | 0.9 | 6.1 | 0.00 | 0.05 | 0.01 | 81 | 1011.4 |
| 20260507115603 | 59 | 111 | 0.9 | 6.1 | 0.00 | 0.06 | 0.01 | 80 | 1011.4 |
| 20260507115103 | 59 | 121 | 0.9 | 5.2 | 0.00 | 0.06 | 0.01 | 80 | 1011.4 |
| 20260507114603 | 59 | 118 | 0.0 | 5.2 | 0.00 | 0.06 | 0.01 | 81 | 1011.3 |
| 20260507114102 | 59 | 138 | 0.9 | 5.2 | 0.00 | 0.06 | 0.01 | 82 | 1011.3 |
| 20260507113603 | 59 | 138 | 1.7 | 7.0 | 0.00 | 0.08 | 0.01 | 81 | 1011.3 |
| 20260507113101 | 59 | 124 | 1.7 | 8.7 | 0.00 | 0.10 | 0.01 | 80 | 1011.0 |
| 20260507112805 | 58 | 121 | 0.9 | 8.7 | 0.00 | 0.11 | 0.01 | 81 | 1010.6 |
| 20260507112049 | 58 | 55 | 0.0 | 0.0 | 0.00 | 0.13 | 0.01 | 82 | 1010.8 |
| 20260507111537 | 58 | 54 | 0.0 | 0.0 | 0.00 | 0.13 | 0.01 | 82 | 1010.7 |
| 20260507111039 | 58 | 119 | 0.0 | 0.0 | 0.00 | 0.13 | 0.01 | 84 | 1010.7 |
| 20260507110515 | 58 | 119 | 0.0 | 0.0 | 0.00 | 0.13 | 0.01 | 85 | 1010.7 |
| 20260507110013 | 58 | 119 | 0.0 | 0.0 | 0.00 | 0.13 | 0.01 | 85 | 1010.7 |
| 20260507105509 | 58 | 119 | 0.0 | 0.0 | 0.00 | 0.13 | 0.01 | 84 | 1010.9 |
| 20260507105009 | 58 | 119 | 0.0 | 0.0 | 0.00 | 0.13 | 0.01 | 84 | 1010.8 |
| 20260507104507 | 58 | 119 | 0.0 | 0.0 | 0.00 | 0.13 | 0.01 | 86 | 1010.7 |
| 20260507103957 | 58 | 119 | 0.0 | 0.0 | 0.00 | 0.13 | 0.01 | 84 | 1010.6 |
| 20260507103455 | 59 | 126 | 0.0 | 0.0 | 0.00 | 0.13 | 0.01 | 83 | 1010.4 |
| 20260507102949 | 59 | 126 | 0.0 | 0.0 | 0.00 | 0.13 | 0.01 | 83 | 1010.4 |
| 20260507102444 | 59 | 125 | 0.0 | 0.0 | 0.00 | 0.13 | 0.01 | 82 | 1010.1 |
| 20260507101937 | 59 | 124 | 0.0 | 0.0 | 0.00 | 0.13 | 0.01 | 81 | 1010.3 |
| 20260507101409 | 59 | 90 | 0.0 | 0.0 | 0.00 | 0.13 | 0.01 | 82 | 1010.2 |
| 20260507100903 | 59 | 57 | 0.0 | 0.0 | 0.00 | 0.13 | 0.01 | 82 | 1010.2 |
| 20260507100345 | 59 | 159 | 0.0 | 0.0 | 0.00 | 0.13 | 0.01 | 83 | 1010.3 |
| 20260507095843 | 59 | 288 | 0.0 | 0.0 | 0.00 | 0.13 | 0.01 | 83 | 1010.6 |
| 20260507095329 | 59 | 169 | 0.0 | 0.0 | 0.00 | 0.13 | 0.01 | 82 | 1010.5 |
| 20260507094831 | 59 | 135 | 0.0 | 0.0 | 0.00 | 0.13 | 0.01 | 82 | 1010.5 |
| 20260507094329 | 59 | 257 | 0.0 | 0.0 | 0.00 | 0.13 | 0.01 | 83 | 1010.4 |
| 20260507093824 | 59 | 257 | 0.0 | 0.0 | 0.00 | 0.13 | 0.01 | 83 | 1010.4 |
| 20260507093318 | 59 | 318 | 0.0 | 0.0 | 0.00 | 0.13 | 0.01 | 83 | 1010.6 |
| 20260507092749 | 59 | 241 | 0.0 | 0.0 | 0.00 | 0.13 | 0.01 | 83 | 1010.5 |
| 20260507092250 | 58 | 84 | 0.0 | 0.0 | 0.00 | 0.13 | 0.01 | 85 | 1010.4 |
| 20260507092016 | 58 | 149 | 0.0 | 0.0 | 0.00 | 0.13 | 0.01 | 85 | 1010.2 |
| 20260507091247 | 58 | 101 | 0.0 | 0.0 | 0.00 | 0.13 | 0.01 | 87 | 1009.9 |
| 20260507090744 | 59 | 101 | 0.0 | 0.0 | 0.00 | 0.13 | 0.01 | 88 | 1010.0 |
| 20260507090245 | 59 | 101 | 0.0 | 0.0 | 0.00 | 0.13 | 0.01 | 87 | 1009.7 |
| 20260507085741 | 59 | 101 | 0.0 | 0.0 | 0.00 | 0.13 | 0.01 | 87 | 1010.1 |
| 20260507085454 | 59 | 130 | 0.0 | 0.0 | 0.00 | 0.13 | 0.01 | 89 | 1010.2 |
| 20260507084717 | 59 | 131 | 0.0 | 0.0 | 0.00 | 0.13 | 0.01 | 88 | 1010.5 |
| 20260507084219 | 59 | 200 | 0.0 | 0.0 | 0.00 | 0.13 | 0.01 | 88 | 1010.4 |
| 20260507083717 | 59 | 104 | 0.0 | 0.0 | 0.00 | 0.13 | 0.01 | 89 | 1010.7 |
| 20260507083215 | 59 | 317 | 0.0 | 0.0 | 0.00 | 0.13 | 0.01 | 90 | 1010.5 |
| 20260507082705 | 59 | 324 | 0.0 | 0.0 | 0.00 | 0.13 | 0.01 | 90 | 1010.4 |
| 20260507082146 | 59 | 323 | 0.0 | 0.0 | 0.00 | 0.13 | 0.01 | 90 | 1010.3 |
| 20260507081647 | 59 | 323 | 0.0 | 0.0 | 0.00 | 0.13 | 0.01 | 91 | 1010.3 |
| 20260507081146 | 59 | 323 | 0.0 | 0.0 | 0.00 | 0.13 | 0.01 | 91 | 1010.3 |
| 20260507080637 | 59 | 296 | 0.0 | 0.0 | 0.00 | 0.13 | 0.01 | 91 | 1010.2 |
| 20260507080135 | 59 | 257 | 0.0 | 0.0 | 0.00 | 0.13 | 0.01 | 92 | 1010.2 |
| 20260507075624 | 59 | 346 | 0.0 | 0.0 | 0.00 | 0.13 | 0.01 | 92 | 1010.4 |
| 20260507075109 | 59 | 318 | 0.0 | 0.0 | 0.00 | 0.13 | 0.01 | 92 | 1010.5 |
| 20260507074550 | 59 | 316 | 0.0 | 0.0 | 0.00 | 0.13 | 0.01 | 93 | 1010.5 |
| 20260507074316 | 59 | 316 | 0.0 | 0.0 | 0.00 | 0.13 | 0.01 | 92 | 1010.3 |
| 20260507073549 | 59 | 314 | 0.0 | 0.0 | 0.00 | 0.13 | 0.01 | 93 | 1010.3 |
| 20260507073046 | 59 | 311 | 0.0 | 0.0 | 0.00 | 0.13 | 0.01 | 94 | 1010.1 |
| 20260507072545 | 59 | 310 | 0.0 | 0.0 | 0.00 | 0.13 | 0.01 | 95 | 1010.1 |
| 20260507072042 | 59 | 311 | 0.0 | 0.0 | 0.00 | 0.13 | 0.01 | 96 | 1010.2 |
| 20260507071535 | 59 | 311 | 0.0 | 0.0 | 0.00 | 0.13 | 0.01 | 96 | 1010.2 |
| 20260507071035 | 59 | 311 | 0.0 | 0.0 | 0.00 | 0.13 | 0.01 | 96 | 1009.6 |
| 20260507070523 | 60 | 311 | 0.0 | 0.0 | 0.00 | 0.13 | 0.01 | 96 | 1010.4 |
| 20260507070017 | 60 | 16 | 0.0 | 0.0 | 0.00 | 0.13 | 0.01 | 96 | 1010.2 |
| 20260507065458 | 60 | 17 | 0.0 | 0.0 | 0.00 | 0.13 | 0.01 | 97 | 1010.3 |
| 20260507064955 | 60 | 17 | 0.0 | 0.0 | 0.00 | 0.13 | 0.01 | 97 | 1010.3 |
| 20260507064448 | 60 | 17 | 0.0 | 0.0 | 0.00 | 0.13 | 0.01 | 97 | 1010.2 |
| 20260507063945 | 60 | 17 | 0.0 | 0.0 | 0.00 | 0.13 | 0.01 | 97 | 1010.4 |
| 20260507063438 | 60 | 314 | 0.0 | 0.0 | 0.00 | 0.13 | 0.01 | 97 | 1010.2 |
| 20260507062931 | 60 | 345 | 0.0 | 0.0 | 0.00 | 0.13 | 0.01 | 97 | 1009.8 |
| 20260507062427 | 60 | 0 | 0.0 | 0.0 | 0.00 | 0.13 | 0.01 | 97 | 1010.3 |
| 20260507062134 | 61 | 0 | 0.0 | 0.0 | 0.00 | 0.13 | 0.01 | 97 | 1010.3 |
| 20260507061618 | 61 | 310 | 0.0 | 0.0 | 0.00 | 0.13 | 0.01 | 97 | 1010.2 |
| 20260507061112 | 61 | 310 | 0.0 | 0.0 | 0.00 | 0.13 | 0.01 | 98 | 1010.3 |
| 20260507060347 | 61 | 310 | 0.0 | 0.0 | 0.00 | 0.13 | 0.01 | 97 | 1010.5 |
| 20260507055329 | 61 | 310 | 0.0 | 0.0 | 0.00 | 0.13 | 0.01 | 97 | 1010.4 |
| 20260507054828 | 61 | 310 | 0.0 | 0.0 | 0.01 | 0.13 | 0.01 | 97 | 1010.8 |
| 20260507054317 | 61 | 310 | 0.0 | 0.0 | 0.01 | 0.13 | 0.01 | 97 | 1010.9 |
| 20260507053809 | 61 | 310 | 0.0 | 0.0 | 0.01 | 0.13 | 0.01 | 97 | 1010.8 |
| 20260507053307 | 61 | 310 | 0.0 | 0.0 | 0.01 | 0.13 | 0.01 | 97 | 1011.1 |
| 20260507052753 | 61 | 310 | 0.0 | 0.0 | 0.01 | 0.13 | 0.01 | 97 | 1011.3 |
| 20260507052252 | 61 | 310 | 0.0 | 0.0 | 0.01 | 0.13 | 0.01 | 97 | 1010.8 |
| 20260507052014 | 61 | 310 | 0.0 | 0.0 | 0.01 | 0.13 | 0.01 | 97 | 1010.7 |
| 20260507051240 | 61 | 309 | 0.0 | 0.0 | 0.01 | 0.13 | 0.01 | 97 | 1010.7 |
| 20260507050738 | 61 | 309 | 0.0 | 0.0 | 0.01 | 0.13 | 0.01 | 97 | 1010.6 |
| 20260507050238 | 61 | 310 | 0.0 | 0.0 | 0.01 | 0.13 | 0.01 | 97 | 1010.4 |
| 20260507045722 | 61 | 309 | 0.0 | 0.0 | 0.01 | 0.13 | 0.01 | 97 | 1010.2 |
| 20260507045436 | 61 | 310 | 0.0 | 0.0 | 0.01 | 0.13 | 0.01 | 97 | 1010.2 |
| 20260507044711 | 61 | 310 | 0.0 | 0.0 | 0.00 | 0.12 | 0.00 | 97 | 1010.1 |
| 20260507044424 | 61 | 310 | 0.0 | 0.0 | 0.00 | 0.12 | 0.00 | 97 | 1010.2 |